Location: Kolin
(50.0330°N, 15.2000°E)
Time: 10:57:21
(UTC+02:00)

ISS - Pass Details

Date: 21 May 2021
Orbit: 417 x 422 km, 51.6° (Epoch: 13 June)

Event Time Altitude Azimuth Distance (km) Brightness Sun altitude
Rises 23:44:55 0° 285° (WNW) 2,368 0.5 -17.9°
Reaches altitude 10° 23:47:01 10° 286° (WNW) 1,504 -0.5 -18.0°
Maximum altitude 23:50:23 89° 9° (N) 426 -3.8 -18.1°
Enters shadow 23:51:19 45° 105° (ESE) 581 -3.3 -18.2°
